FW3958 Weather Reports


time (UTC)temp
F
wind
direction
speed
knots
gust
knots
rain 1hr
in
rain 24hr
in
rain mn
in
humidity
%
barometer
mb
20260506113059 53 309 1.7 2.6 0.00 0.00 0.00 95 1021.6
20260506111557 53 322 0.9 3.5 0.00 0.00 0.00 94 1021.6
20260506110057 53 286 0.9 3.5 0.00 0.00 0.00 94 1021.6
20260506104604 53 288 0.0 1.7 0.00 0.00 0.00 94 1021.5
20260506103104 53 288 0.0 2.6 0.00 0.00 0.00 94 1021.3
20260506101554 53 282 0.0 1.7 0.00 0.00 0.00 94 1021.2
20260506100106 53 281 0.9 2.6 0.00 0.00 0.00 94 1021.2
20260506094601 53 282 0.9 3.5 0.00 0.00 0.00 94 1021.2
20260506093049 53 311 0.0 1.7 0.00 0.00 0.00 94 1021.1
20260506091549 53 317 0.0 1.7 0.00 0.00 0.00 94 1020.8
20260506090049 53 318 0.9 3.5 0.00 0.00 0.00 94 1021.0
20260506084552 53 249 0.0 0.0 0.00 0.00 0.00 96 1021.0
20260506083053 53 249 0.0 1.7 0.00 0.00 0.00 96 1020.9
20260506081600 54 281 0.0 0.0 0.00 0.00 0.00 95 1020.7
20260506073039 54 270 0.0 2.6 0.00 0.00 0.00 95 1020.4
20260506071542 54 243 0.0 2.6 0.00 0.00 0.00 95 1020.4
20260506061541 54 313 0.0 3.5 0.00 0.00 0.00 94 1020.0
20260506044543 54 285 0.0 0.9 0.00 0.00 0.00 96 1019.8
20260506043028 54 286 0.0 0.9 0.00 0.00 0.00 96 1019.8
20260506041528 54 286 0.0 0.9 0.00 0.00 0.00 96 1019.7
20260506040027 55 286 0.0 0.9 0.00 0.00 0.00 95 1019.6
20260506034526 55 286 0.0 1.7 0.00 0.00 0.00 95 1019.4
20260506033029 55 286 0.9 3.5 0.00 0.00 0.00 95 1019.3
20260506031540 55 267 0.0 2.6 0.00 0.00 0.00 95 1019.1
20260506030029 55 278 0.9 3.5 0.00 0.00 0.00 95 1019.0
20260506024529 56 286 0.9 5.2 0.00 0.00 0.00 93 1019.1
20260506023024 56 279 0.0 1.7 0.00 0.00 0.00 93 1018.8
20260506021522 56 290 0.0 2.6 0.00 0.00 0.00 93 1018.8
20260506020022 57 278 0.0 1.7 0.00 0.00 0.00 92 1018.7
20260506014523 57 275 0.9 3.5 0.00 0.00 0.00 91 1018.7
20260506013023 57 293 0.9 3.5 0.00 0.00 0.00 91 1018.8
20260506011542 57 284 0.0 4.3 0.00 0.00 0.00 90 1018.9
20260506010044 57 288 0.9 4.3 0.00 0.00 0.00 89 1018.6
20260506004522 57 241 0.9 6.1 0.00 0.00 0.00 91 1018.7
20260506003022 58 299 0.9 3.5 0.00 0.00 0.00 89 1018.8
20260506001518 58 278 0.9 4.3 0.00 0.00 0.00 90 1018.8
20260506000018 58 263 0.0 5.2 0.00 0.00 0.00 90 1019.0
20260505234516 58 301 2.6 5.2 0.00 0.00 0.00 89 1019.2
20260505233015 58 272 0.9 4.3 0.00 0.00 0.00 88 1019.2
20260505231515 58 272 2.6 6.1 0.00 0.00 0.00 88 1019.2
20260505230023 58 303 3.5 6.1 0.00 0.00 0.00 87 1019.2
20260505224514 59 278 0.0 4.3 0.00 0.00 0.00 87 1019.3
20260505223013 58 290 0.9 4.3 0.00 0.00 0.00 89 1019.4
20260505221513 58 277 2.6 6.1 0.00 0.00 0.00 88 1019.3
20260505220012 58 275 2.6 5.2 0.00 0.00 0.00 88 1019.3
20260505214512 58 239 0.9 6.1 0.00 0.00 0.00 89 1019.4
20260505213020 58 297 2.6 7.0 0.00 0.00 0.00 87 1019.6
20260505211509 58 272 0.0 4.3 0.00 0.00 0.00 88 1019.6
20260505210008 58 274 0.9 5.2 0.00 0.00 0.00 88 1019.5
20260505204506 59 238 0.9 7.0 0.00 0.00 0.00 87 1019.5
20260505203004 58 226 0.0 8.7 0.00 0.00 0.00 89 1019.3
20260505201602 58 224 2.6 7.0 0.00 0.00 0.00 87 1019.4
20260505200202 58 218 4.3 8.7 0.00 0.00 0.00 88 1019.4
20260505194558 58 211 1.7 7.0 0.00 0.00 0.00 87 1019.4
20260505193058 57 210 3.5 7.8 0.00 0.00 0.00 89 1019.4
20260505191607 57 199 4.3 9.6 0.00 0.00 0.00 89 1019.4
20260505190103 57 243 4.3 9.6 0.00 0.00 0.00 89 1019.2
20260505184602 57 220 4.3 7.8 0.00 0.00 0.00 89 1019.3
20260505183119 57 198 4.3 7.8 0.00 0.00 0.00 89 1019.2
20260505181554 57 264 1.7 7.0 0.00 0.00 0.00 89 1019.1
20260505180053 57 240 1.7 6.1 0.00 0.00 0.00 88 1019.0
20260505174551 57 199 0.0 5.2 0.00 0.00 0.00 91 1019.0
20260505173053 57 282 0.9 2.6 0.00 0.00 0.00 91 1019.0
20260505171557 56 284 0.0 4.3 0.00 0.00 0.00 92 1019.0
20260505170047 56 240 0.0 3.5 0.00 0.00 0.00 92 1018.8
20260505164545 56 217 2.6 6.1 0.00 0.00 0.00 92 1018.7
20260505163044 56 210 0.9 5.2 0.00 0.00 0.00 93 1018.5
20260505161551 56 218 1.7 6.1 0.00 0.00 0.00 93 1018.3
20260505153037 55 220 0.0 0.0 0.00 0.00 0.00 94 1018.2
20260505151537 54 220 0.0 0.0 0.00 0.00 0.00 94 1018.1
20260505124522 53 205 0.0 3.5 0.00 0.00 0.00 96 1017.2
20260505123019 53 219 0.0 3.5 0.00 0.00 0.00 95 1016.9
20260505121521 54 201 2.6 7.8 0.00 0.00 0.00 95 1016.7
20260505120048 54 210 1.7 6.1 0.00 0.00 0.00 95 1016.6
20260505114517 54 215 2.6 7.8 0.00 0.00 0.00 95 1016.7